Погода в Каменке

Украина / Николаевская область     46°48′58″N   31°40′22″E
темп.,
°C
ветер,
м/с
пор.,
м/с
влажн.,
%
обл.,
%
осадки,
мм/ч
давл.,
гПа
погр.,
м
2 декабря, чт
чт223:00+1з348014 0.0 101097
02:00+1зюз23755 0.0 101161
05:00+4ю47716 0.0 1010141
08:00+7ююз6127793 0.0 1010335
11:00+10ююз9137399 0.0 1009871
14:00+10юз1016715 0.0 1008866
17:00+9ююз81487100 0.0 1009511
20:00+10ююз81489100 0.0 1009591
3 декабря, пт
пт323:00+9ююз71287100 0.0 1008383
02:00+9ююз61388100 0.0 1008397
05:00+10ююз81589100 0.1 1007574
08:00+10ююз815898 0.1 1007571
11:00+12ююз913798 0.1 1007830
14:00+11ююз813805 0.1 1006572
17:00+10ююз61389100 0.0 1006367
20:00+10зюз6128298 0.0 1008288
4 декабря, сб
сб423:00+7сз5969100 0.0 1010299
02:00+4ссз7108396 0.0 1013403
05:00+3с6995100 0.0 1014453
08:00+4с5685100 0.0 1015441
11:00+5ссв5677100 0.1 1015497
14:00+6св556878 0.2 1014622
17:00+4всв357163 0.0 1014163
20:00+3всв477426 0.0 1013178
5 декабря, вс
вс523:00+3всв3475100 0.0 1013147
02:00+3в3383100 0.0 101368
05:00+3в359070 0.0 1012100
08:00+4вюв3590100 0.0 1012172
11:00+7вюв3587100 0.0 1012276
14:00+8юв4691100 0.0 1010371
17:00+9ююв3595100 0.1 1011130
20:00+9юв4795100 0.1 1011200
6 декабря, пн
пн623:00+9ююв5996100 0.1 1011255
02:00+10ю4994100 0.3 1012233
05:00+11ю51195100 0.3 1011312
08:00+11ююв61296100 0.6 1012407
11:00+12ююв8138799 0.3 1012537
14:00+13ю81485100 0.4 1011654
17:00+12ю81788100 0.0 1011575
20:00+11ю91688100 0.0 1012437